Time,TemperatureF,DewpointF,PressureIn,WindDirection,WindDirectionDegrees,WindSpeedMPH,WindSpeedGustMPH,Humidity,HourlyPrecipIn,Conditions,Clouds,dailyrainin,SoftwareType,DateUTC
2013-02-21 00:00:00,15.3,6.9,30.32,North,0,2.5,4.0,69,0.00,,,0.00,WUHU216HW,2013-02-21 06:00:00,
2013-02-21 00:05:00,15.3,6.9,30.32,NNW,338,2.0,4.0,69,0.00,,,0.00,WUHU216HW,2013-02-21 06:05:00,
2013-02-21 00:10:00,15.3,6.9,30.32,North,0,2.5,3.4,69,0.00,,,0.00,WUHU216HW,2013-02-21 06:10:00,
2013-02-21 00:15:00,15.1,6.8,30.33,North,0,2.5,2.5,69,0.00,,,0.00,WUHU216HW,2013-02-21 06:15:00,
2013-02-21 00:20:00,15.1,6.8,30.32,North,0,1.1,2.5,69,0.00,,,0.00,WUHU216HW,2013-02-21 06:20:00,
2013-02-21 00:25:00,14.9,6.9,30.33,North,0,1.8,3.1,70,0.00,,,0.00,WUHU216HW,2013-02-21 06:25:00,
2013-02-21 00:30:00,14.8,6.8,30.33,North,0,2.5,3.1,70,0.00,,,0.00,WUHU216HW,2013-02-21 06:30:00,
2013-02-21 00:35:00,14.9,6.9,30.33,North,0,3.4,3.8,70,0.00,,,0.00,WUHU216HW,2013-02-21 06:35:00,
2013-02-21 00:40:00,14.9,6.9,30.33,North,0,1.6,3.8,70,0.00,,,0.00,WUHU216HW,2013-02-21 06:40:00,
2013-02-21 00:45:00,14.8,6.8,30.33,North,0,2.2,3.4,70,0.00,,,0.00,WUHU216HW,2013-02-21 06:45:00,
2013-02-21 00:50:00,14.8,7.0,30.33,North,0,2.2,3.4,71,0.00,,,0.00,WUHU216HW,2013-02-21 06:50:00,
2013-02-21 00:55:00,14.8,7.0,30.33,NE,45,1.8,2.9,71,0.00,,,0.00,WUHU216HW,2013-02-21 06:55:00,
2013-02-21 01:00:00,14.8,7.0,30.33,ENE,68,0.9,2.9,71,0.00,,,0.00,WUHU216HW,2013-02-21 07:00:00,
2013-02-21 01:05:00,14.6,6.9,30.33,ENE,68,0.4,2.9,71,0.00,,,0.00,WUHU216HW,2013-02-21 07:05:00,
2013-02-21 01:10:00,14.4,6.8,30.33,NE,45,0.4,1.8,71,0.00,,,0.00,WUHU216HW,2013-02-21 07:10:00,
2013-02-21 01:15:00,14.2,6.6,30.33,North,0,0.9,1.8,71,0.00,,,0.00,WUHU216HW,2013-02-21 07:15:00,
2013-02-21 01:20:00,14.0,6.4,30.33,West,270,0.4,2.0,71,0.00,,,0.00,WUHU216HW,2013-02-21 07:20:00,
2013-02-21 01:25:00,14.0,6.7,30.32,NE,45,2.2,2.2,72,0.00,,,0.00,WUHU216HW,2013-02-21 07:25:00,
2013-02-21 01:30:00,14.0,6.7,30.33,NE,45,0.4,2.2,72,0.00,,,0.00,WUHU216HW,2013-02-21 07:30:00,
2013-02-21 01:35:00,13.7,6.3,30.32,NNE,23,0.9,2.2,72,0.00,,,0.00,WUHU216HW,2013-02-21 07:35:00,
2013-02-21 01:40:00,13.5,6.1,30.33,NNW,338,0.4,1.1,72,0.00,,,0.00,WUHU216HW,2013-02-21 07:40:00,
2013-02-21 01:45:00,13.3,6.3,30.33,ESE,113,0.9,1.8,73,0.00,,,0.00,WUHU216HW,2013-02-21 07:45:00,
2013-02-21 01:50:00,13.1,6.1,30.33,ENE,68,0.4,1.8,73,0.00,,,0.00,WUHU216HW,2013-02-21 07:50:00,
2013-02-21 01:55:00,13.0,6.0,30.33,ENE,68,0.0,1.3,73,0.00,,,0.00,WUHU216HW,2013-02-21 07:55:00,
2013-02-21 02:00:00,13.1,6.4,30.33,NNE,23,0.0,1.3,74,0.00,,,0.00,WUHU216HW,2013-02-21 08:00:00,
2013-02-21 02:05:00,13.0,6.2,30.33,NE,45,0.0,1.1,74,0.00,,,0.00,WUHU216HW,2013-02-21 08:05:00,
2013-02-21 02:10:00,12.6,5.9,30.33,ENE,68,0.7,1.1,74,0.00,,,0.00,WUHU216HW,2013-02-21 08:10:00,
2013-02-21 02:15:00,12.2,5.2,30.33,NE,45,1.3,1.3,73,0.00,,,0.00,WUHU216HW,2013-02-21 08:15:00,
2013-02-21 02:20:00,12.1,5.3,30.33,ENE,68,0.2,1.3,74,0.00,,,0.00,WUHU216HW,2013-02-21 08:20:00,
2013-02-21 02:25:00,11.9,5.1,30.33,NE,45,1.1,1.8,74,0.00,,,0.00,WUHU216HW,2013-02-21 08:25:00,
2013-02-21 02:30:00,11.9,4.9,30.33,ENE,68,0.0,2.0,73,0.00,,,0.00,WUHU216HW,2013-02-21 08:30:00,
2013-02-21 02:35:00,11.7,4.7,30.33,NNE,23,0.0,2.0,73,0.00,,,0.00,WUHU216HW,2013-02-21 08:35:00,
2013-02-21 02:40:00,11.3,4.3,30.33,NNE,23,0.4,1.8,73,0.00,,,0.00,WUHU216HW,2013-02-21 08:40:00,
2013-02-21 02:45:00,11.2,4.2,30.33,NNW,338,0.2,1.8,73,0.00,,,0.00,WUHU216HW,2013-02-21 08:45:00,
2013-02-21 02:50:00,11.2,4.4,30.33,North,0,1.8,1.8,74,0.00,,,0.00,WUHU216HW,2013-02-21 08:50:00,
2013-02-21 02:55:00,11.2,4.7,30.33,NE,45,0.4,1.8,75,0.00,,,0.00,WUHU216HW,2013-02-21 08:55:00,
2013-02-21 03:00:00,11.2,4.4,30.33,NNE,23,0.4,1.8,74,0.00,,,0.00,WUHU216HW,2013-02-21 09:00:00,
2013-02-21 03:05:00,11.2,4.7,30.33,NE,45,0.4,1.8,75,0.00,,,0.00,WUHU216HW,2013-02-21 09:05:00,
2013-02-21 03:10:00,11.2,5.0,30.33,NNE,23,2.2,2.2,76,0.00,,,0.00,WUHU216HW,2013-02-21 09:10:00,
2013-02-21 03:15:00,11.3,5.1,30.33,NNE,23,1.1,2.7,76,0.00,,,0.00,WUHU216HW,2013-02-21 09:15:00,
2013-02-21 03:20:00,11.3,5.1,30.33,ENE,68,2.2,2.7,76,0.00,,,0.00,WUHU216HW,2013-02-21 09:20:00,
2013-02-21 03:25:00,11.3,5.1,30.33,ESE,113,0.4,2.9,76,0.00,,,0.00,WUHU216HW,2013-02-21 09:25:00,
2013-02-21 03:30:00,11.2,5.0,30.34,North,0,0.7,2.9,76,0.00,,,0.00,WUHU216HW,2013-02-21 09:30:00,
2013-02-21 03:35:00,11.3,5.1,30.34,ENE,68,1.8,2.2,76,0.00,,,0.00,WUHU216HW,2013-02-21 09:35:00,
2013-02-21 03:40:00,11.3,5.1,30.34,North,0,1.8,3.1,76,0.00,,,0.00,WUHU216HW,2013-02-21 09:40:00,
2013-02-21 03:45:00,11.3,5.1,30.34,NNE,23,1.1,3.1,76,0.00,,,0.00,WUHU216HW,2013-02-21 09:45:00,
2013-02-21 03:50:00,11.3,5.4,30.35,ENE,68,1.6,1.8,77,0.00,,,0.00,WUHU216HW,2013-02-21 09:50:00,
2013-02-21 03:55:00,11.3,5.1,30.35,NE,45,1.8,3.4,76,0.00,,,0.00,WUHU216HW,2013-02-21 09:55:00,
2013-02-21 04:00:00,11.3,5.1,30.35,North,0,0.7,3.4,76,0.00,,,0.00,WUHU216HW,2013-02-21 10:00:00,
2013-02-21 04:05:00,11.5,5.6,30.35,North,0,0.4,2.9,77,0.00,,,0.00,WUHU216HW,2013-02-21 10:05:00,
2013-02-21 04:10:00,11.5,5.6,30.35,North,0,0.9,2.9,77,0.00,,,0.00,WUHU216HW,2013-02-21 10:10:00,
2013-02-21 04:15:00,11.7,5.8,30.35,North,0,1.1,2.2,77,0.00,,,0.00,WUHU216HW,2013-02-21 10:15:00,
2013-02-21 04:20:00,11.7,5.8,30.35,ESE,113,2.2,2.2,77,0.00,,,0.00,WUHU216HW,2013-02-21 10:20:00,
2013-02-21 04:25:00,11.9,5.9,30.35,NNE,23,0.4,3.4,77,0.00,,,0.00,WUHU216HW,2013-02-21 10:25:00,
2013-02-21 04:30:00,11.9,5.9,30.35,NNW,338,1.1,3.4,77,0.00,,,0.00,WUHU216HW,2013-02-21 10:30:00,
2013-02-21 04:35:00,11.7,5.8,30.35,East,90,0.2,1.8,77,0.00,,,0.00,WUHU216HW,2013-02-21 10:35:00,
2013-02-21 04:40:00,11.7,5.8,30.36,ENE,68,0.0,2.5,77,0.00,,,0.00,WUHU216HW,2013-02-21 10:40:00,
2013-02-21 04:45:00,11.5,5.6,30.36,West,270,0.0,2.5,77,0.00,,,0.00,WUHU216HW,2013-02-21 10:45:00,
2013-02-21 04:50:00,11.5,5.6,30.36,NE,45,1.3,1.3,77,0.00,,,0.00,WUHU216HW,2013-02-21 10:50:00,
2013-02-21 04:55:00,11.5,5.6,30.35,North,0,1.8,1.8,77,0.00,,,0.00,WUHU216HW,2013-02-21 10:55:00,
2013-02-21 05:00:00,11.5,5.6,30.36,NE,45,0.4,2.7,77,0.00,,,0.00,WUHU216HW,2013-02-21 11:00:00,
2013-02-21 05:05:00,11.5,6.0,30.35,NNE,23,1.1,3.8,78,0.00,,,0.00,WUHU216HW,2013-02-21 11:05:00,
2013-02-21 05:10:00,11.5,6.0,30.35,NNW,338,0.4,3.8,78,0.00,,,0.00,WUHU216HW,2013-02-21 11:10:00,
2013-02-21 05:15:00,11.7,6.4,30.35,ESE,113,0.7,3.4,79,0.00,,,0.00,WUHU216HW,2013-02-21 11:15:00,
2013-02-21 05:20:00,11.3,5.8,30.35,NW,315,1.1,3.4,78,0.00,,,0.00,WUHU216HW,2013-02-21 11:20:00,
2013-02-21 05:25:00,11.2,5.6,30.34,NW,315,2.5,3.4,78,0.00,,,0.00,WUHU216HW,2013-02-21 11:25:00,
2013-02-21 05:30:00,11.2,5.6,30.34,North,0,1.1,3.4,78,0.00,,,0.00,WUHU216HW,2013-02-21 11:30:00,
2013-02-21 05:35:00,11.0,5.4,30.33,WSW,248,1.1,3.1,78,0.00,,,0.00,WUHU216HW,2013-02-21 11:35:00,
2013-02-21 05:40:00,10.8,5.2,30.33,North,0,1.3,3.4,78,0.00,,,0.00,WUHU216HW,2013-02-21 11:40:00,
2013-02-21 05:45:00,10.6,5.1,30.32,East,90,1.8,3.4,78,0.00,,,0.00,WUHU216HW,2013-02-21 11:45:00,
2013-02-21 05:50:00,10.4,4.9,30.31,North,0,1.8,3.4,78,0.00,,,0.00,WUHU216HW,2013-02-21 11:50:00,
2013-02-21 05:55:00,10.3,4.7,30.30,NE,45,3.1,3.4,78,0.00,,,0.00,WUHU216HW,2013-02-21 11:55:00,
2013-02-21 06:00:00,10.1,4.5,30.29,East,90,0.9,3.8,78,0.00,,,0.00,WUHU216HW,2013-02-21 12:00:00,
2013-02-21 06:05:00,9.9,4.3,30.28,ESE,113,2.5,3.8,78,0.00,,,0.00,WUHU216HW,2013-02-21 12:05:00,
2013-02-21 06:11:00,9.7,4.1,30.28,NNW,338,2.5,3.8,78,0.00,,,0.00,WUHU216HW,2013-02-21 12:11:00,
2013-02-21 06:16:00,9.7,4.1,30.28,North,0,0.4,3.6,78,0.00,,,0.00,WUHU216HW,2013-02-21 12:16:00,
2013-02-21 06:21:00,9.5,4.3,30.30,ESE,113,2.5,4.0,79,0.00,,,0.00,WUHU216HW,2013-02-21 12:21:00,
2013-02-21 06:26:00,9.4,4.1,30.33,SSW,203,0.0,4.0,79,0.00,,,0.00,WUHU216HW,2013-02-21 12:26:00,
2013-02-21 06:31:00,9.2,3.7,30.35,SSE,158,0.4,2.5,78,0.00,,,0.00,WUHU216HW,2013-02-21 12:31:00,
2013-02-21 06:36:00,9.0,3.5,30.36,South,180,0.9,2.2,78,0.00,,,0.00,WUHU216HW,2013-02-21 12:36:00,
2013-02-21 06:41:00,9.0,3.5,30.35,East,90,0.4,2.2,78,0.00,,,0.00,WUHU216HW,2013-02-21 12:41:00,
2013-02-21 06:46:00,9.0,3.8,30.34,North,0,0.9,1.1,79,0.00,,,0.00,WUHU216HW,2013-02-21 12:46:00,
2013-02-21 06:50:00,8.8,3.7,30.33,NNE,23,0.7,1.1,79,0.00,,,0.00,WUHU216HW,2013-02-21 12:50:00,
2013-02-21 06:55:00,9.0,3.5,30.33,NNE,23,0.0,1.1,78,0.00,,,0.00,WUHU216HW,2013-02-21 12:55:00,
2013-02-21 07:00:00,9.2,3.7,30.34,NNE,23,0.2,1.1,78,0.00,,,0.00,WUHU216HW,2013-02-21 13:00:00,
2013-02-21 07:05:00,9.4,3.9,30.34,NE,45,0.0,0.9,78,0.00,,,0.00,WUHU216HW,2013-02-21 13:05:00,
2013-02-21 07:10:00,9.4,3.9,30.34,NE,45,0.0,0.7,78,0.00,,,0.00,WUHU216HW,2013-02-21 13:10:00,
2013-02-21 07:15:00,9.5,4.1,30.35,NNE,23,0.0,0.4,78,0.00,,,0.00,WUHU216HW,2013-02-21 13:15:00,
2013-02-21 07:20:00,9.7,4.1,30.36,NNE,23,0.0,0.4,78,0.00,,,0.00,WUHU216HW,2013-02-21 13:20:00,
2013-02-21 07:25:00,10.1,4.5,30.36,NNE,23,0.0,0.7,78,0.00,,,0.00,WUHU216HW,2013-02-21 13:25:00,
2013-02-21 07:30:00,10.4,5.1,30.36,North,0,0.2,0.9,79,0.00,,,0.00,WUHU216HW,2013-02-21 13:30:00,
2013-02-21 07:35:00,10.8,5.5,30.35,NNE,23,0.4,1.3,79,0.00,,,0.00,WUHU216HW,2013-02-21 13:35:00,
2013-02-21 07:40:00,11.0,5.4,30.34,SSE,158,1.1,2.5,78,0.00,,,0.00,WUHU216HW,2013-02-21 13:40:00,
2013-02-21 07:45:00,11.0,5.4,30.34,NW,315,0.7,2.5,78,0.00,,,0.00,WUHU216HW,2013-02-21 13:45:00,
2013-02-21 07:50:00,11.2,5.6,30.34,East,90,0.4,2.9,78,0.00,,,0.00,WUHU216HW,2013-02-21 13:50:00,
2013-02-21 07:55:00,11.5,6.2,30.34,ENE,68,0.0,2.9,79,0.00,,,0.00,WUHU216HW,2013-02-21 13:55:00,
2013-02-21 08:00:00,12.1,6.8,30.35,ENE,68,0.0,1.8,79,0.00,,,0.00,WUHU216HW,2013-02-21 14:00:00,
2013-02-21 08:05:00,12.4,6.9,30.36,NE,45,0.0,2.0,78,0.00,,,0.00,WUHU216HW,2013-02-21 14:05:00,
2013-02-21 08:10:00,13.1,7.6,30.36,WNW,293,0.4,2.0,78,0.00,,,0.00,WUHU216HW,2013-02-21 14:10:00,
2013-02-21 08:15:00,13.3,7.8,30.36,NE,45,0.9,1.8,78,0.00,,,0.00,WUHU216HW,2013-02-21 14:15:00,
2013-02-21 08:20:00,13.3,7.4,30.37,SE,135,0.7,2.0,77,0.00,,,0.00,WUHU216HW,2013-02-21 14:20:00,
2013-02-21 08:25:00,13.7,7.7,30.37,North,0,0.4,2.5,77,0.00,,,0.00,WUHU216HW,2013-02-21 14:25:00,
2013-02-21 08:30:00,14.0,8.1,30.37,NW,315,0.2,2.5,77,0.00,,,0.00,WUHU216HW,2013-02-21 14:30:00,
2013-02-21 08:35:00,14.6,8.6,30.36,NNE,23,0.4,1.8,77,0.00,,,0.00,WUHU216HW,2013-02-21 14:35:00,
2013-02-21 08:40:00,14.8,8.6,30.36,ENE,68,1.1,3.4,76,0.00,,,0.00,WUHU216HW,2013-02-21 14:40:00,
2013-02-21 08:45:00,14.9,8.7,30.35,West,270,1.1,4.3,76,0.00,,,0.00,WUHU216HW,2013-02-21 14:45:00,
2013-02-21 08:50:00,15.1,8.9,30.35,ENE,68,0.9,4.3,76,0.00,,,0.00,WUHU216HW,2013-02-21 14:50:00,
2013-02-21 08:55:00,15.5,9.3,30.35,NE,45,0.4,2.9,76,0.00,,,0.00,WUHU216HW,2013-02-21 14:55:00,
2013-02-21 09:00:00,16.0,9.7,30.35,ENE,68,0.9,2.0,76,0.00,,,0.00,WUHU216HW,2013-02-21 15:00:00,
2013-02-21 09:05:00,16.2,9.6,30.35,SSE,158,0.9,2.7,75,0.00,,,0.00,WUHU216HW,2013-02-21 15:05:00,
2013-02-21 09:10:00,16.4,9.8,30.35,NNW,338,1.8,3.1,75,0.00,,,0.00,WUHU216HW,2013-02-21 15:10:00,
2013-02-21 09:15:00,16.2,9.3,30.34,NE,45,2.2,4.5,74,0.00,,,0.00,WUHU216HW,2013-02-21 15:15:00,
2013-02-21 09:20:00,16.4,9.8,30.34,SW,225,3.1,4.7,75,0.00,,,0.00,WUHU216HW,2013-02-21 15:20:00,
2013-02-21 09:25:00,17.1,10.4,30.34,North,0,0.2,4.7,75,0.00,,,0.00,WUHU216HW,2013-02-21 15:25:00,
2013-02-21 09:30:00,17.6,10.7,30.35,NE,45,0.2,3.1,74,0.00,,,0.00,WUHU216HW,2013-02-21 15:30:00,
2013-02-21 09:35:00,18.0,11.1,30.35,NNW,338,1.1,2.7,74,0.00,,,0.00,WUHU216HW,2013-02-21 15:35:00,
2013-02-21 09:40:00,18.2,11.2,30.35,North,0,1.6,2.7,74,0.00,,,0.00,WUHU216HW,2013-02-21 15:40:00,
2013-02-21 09:45:00,18.4,11.1,30.35,SW,225,2.2,2.2,73,0.00,,,0.00,WUHU216HW,2013-02-21 15:45:00,
2013-02-21 09:50:00,18.7,11.7,30.35,SSE,158,0.4,2.7,74,0.00,,,0.00,WUHU216HW,2013-02-21 15:50:00,
2013-02-21 09:55:00,18.7,11.4,30.35,West,270,1.1,2.7,73,0.00,,,0.00,WUHU216HW,2013-02-21 15:55:00,
2013-02-21 10:00:00,19.1,12.1,30.34,North,0,1.6,2.5,74,0.00,,,0.00,WUHU216HW,2013-02-21 16:00:00,
2013-02-21 10:05:00,19.8,12.8,30.35,SW,225,0.9,2.5,74,0.00,,,0.00,WUHU216HW,2013-02-21 16:05:00,
2013-02-21 10:10:00,19.8,12.2,30.35,ESE,113,0.9,2.5,72,0.00,,,0.00,WUHU216HW,2013-02-21 16:10:00,
2013-02-21 10:15:00,20.0,12.3,30.35,ENE,68,1.1,2.5,72,0.00,,,0.00,WUHU216HW,2013-02-21 16:15:00,
2013-02-21 10:20:00,20.5,13.1,30.34,NNW,338,2.0,2.0,73,0.00,,,0.00,WUHU216HW,2013-02-21 16:20:00,
2013-02-21 10:25:00,20.5,12.9,30.34,East,90,1.1,3.4,72,0.00,,,0.00,WUHU216HW,2013-02-21 16:25:00,
2013-02-21 10:30:00,20.7,13.1,30.35,NNW,338,2.0,3.4,72,0.00,,,0.00,WUHU216HW,2013-02-21 16:30:00,
2013-02-21 10:35:00,20.5,12.9,30.35,West,270,1.3,3.8,72,0.00,,,0.00,WUHU216HW,2013-02-21 16:35:00,
2013-02-21 10:40:00,21.2,13.6,30.34,East,90,0.4,3.8,72,0.00,,,0.00,WUHU216HW,2013-02-21 16:40:00,
2013-02-21 10:45:00,21.6,13.3,30.34,ENE,68,0.4,3.1,70,0.00,,,0.00,WUHU216HW,2013-02-21 16:45:00,
2013-02-21 10:50:00,21.8,13.8,30.35,North,0,0.4,3.1,71,0.00,,,0.00,WUHU216HW,2013-02-21 16:50:00,
2013-02-21 10:55:00,22.0,13.7,30.35,SW,225,1.3,2.5,70,0.00,,,0.00,WUHU216HW,2013-02-21 16:55:00,
2013-02-21 11:00:00,22.0,13.7,30.35,SW,225,1.3,3.6,70,0.00,,,0.00,WUHU216HW,2013-02-21 17:00:00,
2013-02-21 11:05:00,22.3,14.0,30.34,NNE,23,0.4,3.6,70,0.00,,,0.00,WUHU216HW,2013-02-21 17:05:00,
2013-02-21 11:10:00,22.9,14.6,30.34,ESE,113,1.1,2.2,70,0.00,,,0.00,WUHU216HW,2013-02-21 17:10:00,
2013-02-21 11:15:00,22.9,14.2,30.33,ENE,68,1.1,2.2,69,0.00,,,0.00,WUHU216HW,2013-02-21 17:15:00,
2013-02-21 11:20:00,23.2,15.0,30.33,WSW,248,0.4,2.2,70,0.00,,,0.00,WUHU216HW,2013-02-21 17:20:00,
2013-02-21 11:25:00,23.4,14.8,30.32,NNE,23,2.5,2.9,69,0.00,,,0.00,WUHU216HW,2013-02-21 17:25:00,
2013-02-21 11:30:00,23.0,14.4,30.31,NE,45,3.6,3.6,69,0.00,,,0.00,WUHU216HW,2013-02-21 17:30:00,
2013-02-21 11:35:00,22.7,14.0,30.32,North,0,0.4,3.6,69,0.00,,,0.00,WUHU216HW,2013-02-21 17:35:00,
2013-02-21 11:40:00,22.5,13.9,30.31,ENE,68,1.3,2.7,69,0.00,,,0.00,WUHU216HW,2013-02-21 17:40:00,
2013-02-21 11:45:00,22.0,13.7,30.31,NE,45,1.1,4.0,70,0.00,,,0.00,WUHU216HW,2013-02-21 17:45:00,
2013-02-21 11:50:00,21.4,13.4,30.30,NNE,23,2.0,4.0,71,0.00,,,0.00,WUHU216HW,2013-02-21 17:50:00,
2013-02-21 11:55:00,20.5,13.5,30.29,North,0,4.7,4.7,74,0.00,,,0.00,WUHU216HW,2013-02-21 17:55:00,
2013-02-21 12:00:00,20.5,13.8,30.29,North,0,2.7,4.7,75,0.00,,,0.00,WUHU216HW,2013-02-21 18:00:00,
2013-02-21 12:05:00,20.9,14.4,30.28,North,0,1.6,4.7,76,0.00,,,0.00,WUHU216HW,2013-02-21 18:05:00,
2013-02-21 12:10:00,20.9,14.1,30.28,NNW,338,3.6,4.0,75,0.00,,,0.00,WUHU216HW,2013-02-21 18:10:00,
2013-02-21 12:15:00,21.2,14.8,30.28,North,0,4.0,4.0,76,0.00,,,0.00,WUHU216HW,2013-02-21 18:15:00,
2013-02-21 12:20:00,20.7,14.2,30.28,NNW,338,2.7,4.5,76,0.00,,,0.00,WUHU216HW,2013-02-21 18:20:00,
2013-02-21 12:25:00,20.7,14.2,30.28,NNW,338,3.1,4.5,76,0.00,,,0.00,WUHU216HW,2013-02-21 18:25:00,
2013-02-21 12:30:00,21.1,15.2,30.28,North,0,0.4,4.0,78,0.00,,,0.00,WUHU216HW,2013-02-21 18:30:00,
2013-02-21 12:35:00,21.4,15.3,30.27,NNE,23,0.4,4.3,77,0.00,,,0.00,WUHU216HW,2013-02-21 18:35:00,
2013-02-21 12:40:00,21.6,15.5,30.27,ESE,113,1.1,4.3,77,0.00,,,0.00,WUHU216HW,2013-02-21 18:40:00,
2013-02-21 12:45:00,22.0,16.1,30.27,ENE,68,1.8,4.3,78,0.00,,,0.00,WUHU216HW,2013-02-21 18:45:00,
2013-02-21 12:50:00,22.0,15.9,30.27,NNW,338,2.5,4.0,77,0.00,,,0.00,WUHU216HW,2013-02-21 18:50:00,
2013-02-21 12:55:00,22.0,16.1,30.25,NNE,23,1.8,4.0,78,0.00,,,0.00,WUHU216HW,2013-02-21 18:55:00,
2013-02-21 13:00:00,21.8,15.9,30.26,ESE,113,2.7,3.8,78,0.00,,,0.00,WUHU216HW,2013-02-21 19:00:00,
2013-02-21 13:05:00,21.6,15.8,30.25,NNW,338,2.9,3.8,78,0.00,,,0.00,WUHU216HW,2013-02-21 19:05:00,
2013-02-21 13:10:00,22.0,16.5,30.24,NNW,338,2.9,4.3,79,0.00,,,0.00,WUHU216HW,2013-02-21 19:10:00,
2013-02-21 13:15:00,21.8,16.6,30.23,SE,135,4.0,4.5,80,0.00,,,0.00,WUHU216HW,2013-02-21 19:15:00,
2013-02-21 13:20:00,21.8,16.6,30.23,North,0,2.0,4.7,80,0.00,,,0.00,WUHU216HW,2013-02-21 19:20:00,
2013-02-21 13:25:00,21.4,16.2,30.23,NNW,338,2.9,5.8,80,0.00,,,0.00,WUHU216HW,2013-02-21 19:25:00,
2013-02-21 13:30:00,21.2,16.0,30.23,North,0,5.8,6.0,80,0.00,,,0.00,WUHU216HW,2013-02-21 19:30:00,
2013-02-21 13:35:00,21.4,16.5,30.22,NNE,23,2.5,6.0,81,0.00,,,0.00,WUHU216HW,2013-02-21 19:35:00,
2013-02-21 13:40:00,21.6,16.4,30.22,NNW,338,2.0,5.8,80,0.00,,,0.00,WUHU216HW,2013-02-21 19:40:00,
2013-02-21 13:45:00,21.6,16.4,30.22,ESE,113,2.5,5.8,80,0.00,,,0.00,WUHU216HW,2013-02-21 19:45:00,
2013-02-21 13:50:00,22.0,16.7,30.22,NNE,23,1.1,5.4,80,0.00,,,0.00,WUHU216HW,2013-02-21 19:50:00,
2013-02-21 13:55:00,22.3,17.1,30.22,WNW,293,1.3,4.3,80,0.00,,,0.00,WUHU216HW,2013-02-21 19:55:00,
2013-02-21 14:00:00,22.3,17.1,30.22,NNW,338,3.4,4.3,80,0.00,,,0.00,WUHU216HW,2013-02-21 20:00:00,
2013-02-21 14:05:00,22.3,17.1,30.22,ENE,68,2.7,3.4,80,0.00,,,0.00,WUHU216HW,2013-02-21 20:05:00,
2013-02-21 14:10:00,22.1,16.9,30.22,NE,45,6.7,6.7,80,0.00,,,0.00,WUHU216HW,2013-02-21 20:10:00,
2013-02-21 14:15:00,21.8,16.8,30.22,North,0,1.6,6.7,81,0.00,,,0.00,WUHU216HW,2013-02-21 20:15:00,
2013-02-21 14:20:00,21.8,17.1,30.21,ENE,68,4.0,6.7,82,0.00,,,0.00,WUHU216HW,2013-02-21 20:20:00,
2013-02-21 14:25:00,21.8,17.1,30.21,NNE,23,2.9,4.7,82,0.00,,,0.00,WUHU216HW,2013-02-21 20:25:00,
2013-02-21 14:30:00,22.0,17.3,30.21,SW,225,3.4,4.7,82,0.00,,,0.00,WUHU216HW,2013-02-21 20:30:00,
2013-02-21 14:35:00,22.0,17.3,30.21,North,0,2.5,4.7,82,0.00,,,0.00,WUHU216HW,2013-02-21 20:35:00,
2013-02-21 14:40:00,22.3,17.6,30.22,NNW,338,1.6,4.7,82,0.00,,,0.00,WUHU216HW,2013-02-21 20:40:00,
2013-02-21 14:45:00,22.3,17.6,30.22,SE,135,2.0,4.3,82,0.00,,,0.00,WUHU216HW,2013-02-21 20:45:00,
2013-02-21 14:50:00,22.0,17.3,30.22,NNE,23,4.3,4.9,82,0.00,,,0.00,WUHU216HW,2013-02-21 20:50:00,
2013-02-21 14:55:00,22.0,17.3,30.22,ENE,68,2.9,5.1,82,0.00,,,0.00,WUHU216HW,2013-02-21 20:55:00,
2013-02-21 15:00:00,22.0,17.6,30.22,NNW,338,2.9,5.1,83,0.00,,,0.00,WUHU216HW,2013-02-21 21:00:00,
2013-02-21 15:05:00,22.0,17.6,30.22,NE,45,2.0,5.1,83,0.00,,,0.00,WUHU216HW,2013-02-21 21:05:00,
2013-02-21 15:10:00,22.3,17.9,30.22,SSE,158,1.6,4.0,83,0.00,,,0.00,WUHU216HW,2013-02-21 21:10:00,
2013-02-21 15:15:00,22.3,17.9,30.22,South,180,3.4,5.4,83,0.00,,,0.00,WUHU216HW,2013-02-21 21:15:00,
2013-02-21 15:20:00,22.1,17.7,30.22,WSW,248,1.1,5.8,83,0.00,,,0.00,WUHU216HW,2013-02-21 21:20:00,
2013-02-21 15:25:00,22.3,17.9,30.21,NNE,23,2.7,5.8,83,0.00,,,0.00,WUHU216HW,2013-02-21 21:25:00,
2013-02-21 15:30:00,22.3,17.9,30.20,SE,135,2.0,2.9,83,0.00,,,0.00,WUHU216HW,2013-02-21 21:30:00,
2013-02-21 15:35:00,22.1,18.0,30.20,SSW,203,2.5,4.7,84,0.00,,,0.00,WUHU216HW,2013-02-21 21:35:00,
2013-02-21 15:41:00,22.1,18.0,30.21,West,270,2.2,5.4,84,0.00,,,0.00,WUHU216HW,2013-02-21 21:41:00,
2013-02-21 15:46:00,22.1,18.3,30.20,ENE,68,1.8,5.4,85,0.00,,,0.00,WUHU216HW,2013-02-21 21:46:00,
2013-02-21 15:51:00,22.0,18.1,30.21,East,90,1.6,5.1,85,0.00,,,0.00,WUHU216HW,2013-02-21 21:51:00,
2013-02-21 15:56:00,22.0,18.1,30.20,SSW,203,1.3,5.1,85,0.00,,,0.00,WUHU216HW,2013-02-21 21:56:00,
2013-02-21 16:01:00,22.0,18.1,30.20,NE,45,1.8,4.0,85,0.00,,,0.00,WUHU216HW,2013-02-21 22:01:00,
2013-02-21 16:06:00,22.1,18.3,30.20,ESE,113,2.0,4.7,85,0.00,,,0.00,WUHU216HW,2013-02-21 22:06:00,
2013-02-21 16:11:00,22.0,18.1,30.19,North,0,1.8,4.7,85,0.00,,,0.00,WUHU216HW,2013-02-21 22:11:00,
2013-02-21 16:16:00,22.0,18.4,30.19,NNE,23,2.5,4.7,86,0.00,,,0.00,WUHU216HW,2013-02-21 22:16:00,
2013-02-21 16:21:00,22.0,18.4,30.19,NW,315,1.8,4.7,86,0.00,,,0.00,WUHU216HW,2013-02-21 22:21:00,
2013-02-21 16:26:00,21.8,17.9,30.19,NNW,338,5.4,5.4,85,0.00,,,0.00,WUHU216HW,2013-02-21 22:26:00,
2013-02-21 16:31:00,22.0,18.4,30.19,NNE,23,4.3,6.0,86,0.00,,,0.00,WUHU216HW,2013-02-21 22:31:00,
2013-02-21 16:36:00,21.8,18.2,30.19,ESE,113,1.6,6.0,86,0.00,,,0.00,WUHU216HW,2013-02-21 22:36:00,
2013-02-21 16:41:00,22.0,18.4,30.18,WSW,248,1.1,4.3,86,0.00,,,0.00,WUHU216HW,2013-02-21 22:41:00,
2013-02-21 16:46:00,22.0,18.4,30.18,NE,45,1.1,4.5,86,0.00,,,0.00,WUHU216HW,2013-02-21 22:46:00,
2013-02-21 16:51:00,22.0,18.6,30.18,North,0,2.7,4.7,87,0.00,,,0.00,WUHU216HW,2013-02-21 22:51:00,
2013-02-21 16:56:00,22.0,18.6,30.17,NW,315,1.1,4.7,87,0.00,,,0.00,WUHU216HW,2013-02-21 22:56:00,
2013-02-21 17:01:00,22.0,18.6,30.17,NE,45,0.9,4.0,87,0.00,,,0.00,WUHU216HW,2013-02-21 23:01:00,
2013-02-21 17:06:00,22.0,18.6,30.16,NNW,338,3.4,3.8,87,0.00,,,0.00,WUHU216HW,2013-02-21 23:06:00,
2013-02-21 17:11:00,22.0,18.6,30.16,ENE,68,3.1,3.8,87,0.00,,,0.00,WUHU216HW,2013-02-21 23:11:00,
2013-02-21 17:16:00,22.0,18.6,30.15,NNE,23,1.8,4.3,87,0.00,,,0.00,WUHU216HW,2013-02-21 23:16:00,
2013-02-21 17:21:00,22.0,18.9,30.15,NNW,338,1.3,4.7,88,0.00,,,0.00,WUHU216HW,2013-02-21 23:21:00,
2013-02-21 17:26:00,22.0,18.9,30.15,NNW,338,2.5,4.9,88,0.00,,,0.00,WUHU216HW,2013-02-21 23:26:00,
2013-02-21 17:31:00,22.1,19.1,30.15,East,90,2.5,4.9,88,0.00,,,0.00,WUHU216HW,2013-02-21 23:31:00,
2013-02-21 17:36:00,22.3,19.3,30.14,ENE,68,2.9,5.1,88,0.00,,,0.00,WUHU216HW,2013-02-21 23:36:00,
2013-02-21 17:41:00,22.3,19.5,30.14,WSW,248,1.6,5.1,89,0.00,,,0.00,WUHU216HW,2013-02-21 23:41:00,
2013-02-21 17:46:00,22.5,19.7,30.14,SSE,158,1.8,4.7,89,0.00,,,0.00,WUHU216HW,2013-02-21 23:46:00,
2013-02-21 17:51:00,22.7,20.2,30.14,North,0,1.8,5.8,90,0.00,,,0.00,WUHU216HW,2013-02-21 23:51:00,
2013-02-21 17:56:00,22.7,19.9,30.14,West,270,1.1,5.8,89,0.00,,,0.00,WUHU216HW,2013-02-21 23:56:00,
2013-02-21 18:01:00,22.7,20.2,30.14,NE,45,5.6,5.6,90,0.00,,,0.00,WUHU216HW,2013-02-22 00:01:00,
2013-02-21 18:06:00,22.9,20.1,30.14,North,0,2.2,5.6,89,0.00,,,0.00,WUHU216HW,2013-02-22 00:06:00,
2013-02-21 18:11:00,23.0,20.5,30.14,NNW,338,2.5,5.6,90,0.00,,,0.00,WUHU216HW,2013-02-22 00:11:00,
2013-02-21 18:16:00,23.0,20.3,30.14,ESE,113,2.5,3.4,89,0.00,,,0.00,WUHU216HW,2013-02-22 00:16:00,
2013-02-21 18:21:00,23.2,20.7,30.14,NNE,23,2.9,3.1,90,0.00,,,0.00,WUHU216HW,2013-02-22 00:21:00,
2013-02-21 18:26:00,23.4,20.9,30.14,ESE,113,1.1,4.9,90,0.00,,,0.00,WUHU216HW,2013-02-22 00:26:00,
2013-02-21 18:31:00,23.4,20.9,30.13,West,270,1.1,4.9,90,0.00,,,0.00,WUHU216HW,2013-02-22 00:31:00,
2013-02-21 18:36:00,23.6,21.1,30.12,ENE,68,3.4,4.0,90,0.00,,,0.00,WUHU216HW,2013-02-22 00:36:00,
2013-02-21 18:41:00,23.8,21.2,30.12,West,270,2.2,4.0,90,0.00,,,0.00,WUHU216HW,2013-02-22 00:41:00,
2013-02-21 18:46:00,23.9,21.4,30.12,WSW,248,2.5,3.8,90,0.00,,,0.00,WUHU216HW,2013-02-22 00:46:00,
2013-02-21 18:51:00,24.1,21.6,30.11,ENE,68,2.2,3.8,90,0.00,,,0.00,WUHU216HW,2013-02-22 00:51:00,
2013-02-21 18:56:00,24.3,21.8,30.12,SW,225,4.5,4.5,90,0.00,,,0.00,WUHU216HW,2013-02-22 00:56:00,
2013-02-21 19:01:00,24.3,21.8,30.12,South,180,2.0,4.5,90,0.00,,,0.00,WUHU216HW,2013-02-22 01:01:00,
2013-02-21 19:06:00,24.5,22.0,30.12,South,180,4.7,5.4,90,0.00,,,0.00,WUHU216HW,2013-02-22 01:06:00,
2013-02-21 19:11:00,24.8,22.3,30.12,NW,315,1.8,5.4,90,0.00,,,0.00,WUHU216HW,2013-02-22 01:11:00,
2013-02-21 19:16:00,24.8,22.1,30.12,WSW,248,6.0,6.0,89,0.00,,,0.00,WUHU216HW,2013-02-22 01:16:00,
2013-02-21 19:21:00,24.8,22.1,30.11,WSW,248,2.0,6.0,89,0.00,,,0.00,WUHU216HW,2013-02-22 01:21:00,
2013-02-21 19:26:00,24.8,21.8,30.10,West,270,2.5,6.3,88,0.00,,,0.00,WUHU216HW,2013-02-22 01:26:00,
2013-02-21 19:31:00,24.7,21.6,30.10,SSE,158,4.0,9.8,88,0.00,,,0.00,WUHU216HW,2013-02-22 01:31:00,
2013-02-21 19:36:00,24.7,21.6,30.09,SSW,203,3.6,9.8,88,0.00,,,0.00,WUHU216HW,2013-02-22 01:36:00,
2013-02-21 19:41:00,24.7,21.6,30.09,SE,135,2.2,5.1,88,0.00,,,0.00,WUHU216HW,2013-02-22 01:41:00,
2013-02-21 19:46:00,24.7,21.6,30.08,SSE,158,3.4,4.7,88,0.00,,,0.00,WUHU216HW,2013-02-22 01:46:00,
2013-02-21 19:51:00,24.7,21.6,30.07,South,180,2.7,6.5,88,0.00,,,0.00,WUHU216HW,2013-02-22 01:51:00,
2013-02-21 19:56:00,24.7,21.6,30.07,WNW,293,3.4,6.5,88,0.00,,,0.00,WUHU216HW,2013-02-22 01:56:00,
2013-02-21 20:01:00,24.8,21.8,30.06,NW,315,2.5,4.9,88,0.00,,,0.00,WUHU216HW,2013-02-22 02:01:00,
2013-02-21 20:06:00,24.8,21.8,30.06,South,180,3.1,8.1,88,0.00,,,0.00,WUHU216HW,2013-02-22 02:06:00,
2013-02-21 20:11:00,24.8,21.8,30.06,WSW,248,2.5,8.1,88,0.00,,,0.00,WUHU216HW,2013-02-22 02:11:00,
2013-02-21 20:16:00,24.8,21.8,30.05,WSW,248,2.7,5.1,88,0.00,,,0.00,WUHU216HW,2013-02-22 02:16:00,
2013-02-21 20:21:00,24.8,21.8,30.06,SW,225,2.7,5.8,88,0.00,,,0.00,WUHU216HW,2013-02-22 02:21:00,
2013-02-21 20:26:00,24.7,21.3,30.05,ESE,113,2.7,5.8,87,0.00,,,0.00,WUHU216HW,2013-02-22 02:26:00,
2013-02-21 20:31:00,24.7,21.3,30.05,NNE,23,3.4,4.7,87,0.00,,,0.00,WUHU216HW,2013-02-22 02:31:00,
2013-02-21 20:36:00,24.8,21.5,30.05,West,270,4.0,4.7,87,0.00,,,0.00,WUHU216HW,2013-02-22 02:36:00,
2013-02-21 20:41:00,24.8,21.5,30.06,NW,315,3.1,4.5,87,0.00,,,0.00,WUHU216HW,2013-02-22 02:41:00,
2013-02-21 20:46:00,24.8,21.5,30.05,ENE,68,2.5,4.5,87,0.00,,,0.00,WUHU216HW,2013-02-22 02:46:00,
2013-02-21 20:51:00,24.8,21.5,30.05,NW,315,1.3,3.1,87,0.00,,,0.00,WUHU216HW,2013-02-22 02:51:00,
2013-02-21 20:56:00,24.8,21.5,30.06,WNW,293,2.9,5.1,87,0.00,,,0.00,WUHU216HW,2013-02-22 02:56:00,
2013-02-21 21:01:00,25.0,21.4,30.05,West,270,1.6,5.4,86,0.00,,,0.00,WUHU216HW,2013-02-22 03:01:00,
2013-02-21 21:06:00,25.0,21.4,30.06,NW,315,1.1,5.4,86,0.00,,,0.00,WUHU216HW,2013-02-22 03:06:00,
2013-02-21 21:11:00,25.2,21.9,30.06,SW,225,1.6,3.1,87,0.00,,,0.00,WUHU216HW,2013-02-22 03:11:00,
2013-02-21 21:16:00,25.2,21.9,30.05,SE,135,4.7,4.7,87,0.00,,,0.00,WUHU216HW,2013-02-22 03:16:00,
2013-02-21 21:21:00,25.2,21.6,30.04,SSW,203,1.3,4.7,86,0.00,,,0.00,WUHU216HW,2013-02-22 03:21:00,
2013-02-21 21:26:00,25.2,21.6,30.04,WSW,248,3.4,3.4,86,0.00,,,0.00,WUHU216HW,2013-02-22 03:26:00,
2013-02-21 21:31:00,25.2,21.6,30.03,North,0,2.9,3.4,86,0.00,,,0.00,WUHU216HW,2013-02-22 03:31:00,
2013-02-21 21:36:00,25.2,21.3,30.04,NW,315,2.2,5.1,85,0.00,,,0.00,WUHU216HW,2013-02-22 03:36:00,
2013-02-21 21:41:00,25.2,21.3,30.03,SE,135,2.7,5.1,85,0.00,,,0.00,WUHU216HW,2013-02-22 03:41:00,
2013-02-21 21:46:00,25.4,21.5,30.02,SW,225,3.4,5.4,85,0.00,,,0.00,WUHU216HW,2013-02-22 03:46:00,
2013-02-21 21:51:00,25.4,21.5,30.02,North,0,2.2,5.4,85,0.00,,,0.00,WUHU216HW,2013-02-22 03:51:00,
2013-02-21 21:56:00,25.4,21.5,30.02,South,180,4.0,4.7,85,0.00,,,0.00,WUHU216HW,2013-02-22 03:56:00,
2013-02-21 22:01:00,25.4,21.3,30.03,SSW,203,1.8,4.0,84,0.00,,,0.00,WUHU216HW,2013-02-22 04:01:00,
2013-02-21 22:06:00,25.4,21.3,30.02,ESE,113,2.5,5.4,84,0.00,,,0.00,WUHU216HW,2013-02-22 04:06:00,
2013-02-21 22:11:00,25.4,21.0,30.03,NNE,23,2.2,5.4,83,0.00,,,0.00,WUHU216HW,2013-02-22 04:11:00,
2013-02-21 22:16:00,25.2,20.8,30.03,SSW,203,2.0,4.7,83,0.00,,,0.00,WUHU216HW,2013-02-22 04:16:00,
2013-02-21 22:21:00,25.2,20.8,30.03,ESE,113,4.5,4.7,83,0.00,,,0.00,WUHU216HW,2013-02-22 04:21:00,
2013-02-21 22:26:00,25.2,20.8,30.03,NNW,338,3.1,4.7,83,0.00,,,0.00,WUHU216HW,2013-02-22 04:26:00,
2013-02-21 22:31:00,25.0,20.6,30.02,SSW,203,4.9,4.9,83,0.00,,,0.00,WUHU216HW,2013-02-22 04:31:00,
2013-02-21 22:36:00,25.0,20.6,30.03,SW,225,4.0,5.4,83,0.00,,,0.00,WUHU216HW,2013-02-22 04:36:00,
2013-02-21 22:41:00,25.0,20.6,30.03,North,0,4.9,5.4,83,0.00,,,0.00,WUHU216HW,2013-02-22 04:41:00,
2013-02-21 22:46:00,25.0,20.6,30.03,WSW,248,1.8,5.4,83,0.00,,,0.00,WUHU216HW,2013-02-22 04:46:00,
2013-02-21 22:51:00,25.0,20.6,30.03,North,0,2.0,5.4,83,0.00,,,0.00,WUHU216HW,2013-02-22 04:51:00,
2013-02-21 22:56:00,25.0,20.6,30.02,SW,225,2.2,3.6,83,0.00,,,0.00,WUHU216HW,2013-02-22 04:56:00,
2013-02-21 23:00:00,24.8,20.7,30.02,ENE,68,2.5,4.0,84,0.00,,,0.00,WUHU216HW,2013-02-22 05:00:00,
2013-02-21 23:01:00,24.8,20.7,30.02,South,180,2.5,4.0,84,0.00,,,0.00,WUHU216HW,2013-02-22 05:01:00,
2013-02-21 23:06:00,24.8,20.7,30.02,ESE,113,3.1,4.0,84,0.00,,,0.00,WUHU216HW,2013-02-22 05:06:00,
2013-02-21 23:11:00,24.8,21.0,30.02,NNE,23,1.3,4.0,85,0.00,,,0.00,WUHU216HW,2013-02-22 05:11:00,
2013-02-21 23:16:00,24.7,20.8,30.02,South,180,2.2,4.0,85,0.00,,,0.00,WUHU216HW,2013-02-22 05:16:00,
2013-02-21 23:21:00,24.5,21.2,30.02,North,0,2.2,3.6,87,0.00,,,0.00,WUHU216HW,2013-02-22 05:21:00,
2013-02-21 23:26:00,24.3,21.0,30.02,NNE,23,2.5,3.6,87,0.00,,,0.00,WUHU216HW,2013-02-22 05:26:00,
2013-02-21 23:31:00,24.3,21.2,30.01,NW,315,2.2,3.4,88,0.00,,,0.00,WUHU216HW,2013-02-22 05:31:00,
2013-02-21 23:36:00,24.1,21.1,30.01,WSW,248,0.9,2.9,88,0.00,,,0.00,WUHU216HW,2013-02-22 05:36:00,
2013-02-21 23:41:00,24.1,21.1,30.01,SW,225,1.8,3.1,88,0.00,,,0.00,WUHU216HW,2013-02-22 05:41:00,
2013-02-21 23:46:00,24.1,21.1,30.01,North,0,1.8,3.1,88,0.00,,,0.00,WUHU216HW,2013-02-22 05:46:00,
2013-02-21 23:51:00,24.3,21.2,30.00,WSW,248,1.1,3.4,88,0.00,,,0.00,WUHU216HW,2013-02-22 05:51:00,
2013-02-21 23:56:00,24.5,21.4,30.00,NNW,338,1.1,3.4,88,0.00,,,0.00,WUHU216HW,2013-02-22 05:56:00,